Location: Unspecified
(0.0000°N, 0.0000°E)
Time: 08:14:31
(UTC+00:00)

BlueWalker 3 - Visible Passes

Search period start: 30 November 2023 00:00
Search period end: 10 December 2023 00:00
Orbit: 489 x 504 km, 53.2° (Epoch: 29 November)

Date Brightness Start Highest point End Pass type
(mag) Time Alt. Az. Time Alt. Az. Time Alt. Az.
04 Dec 4.4 20:03:50 10° SW 20:05:16 21° SW 20:05:16 21° SW visible
05 Dec 2.9 19:41:09 10° SW 19:44:07 45° WSW 19:44:07 45° WSW visible
06 Dec 2.3 19:18:26 10° SW 19:22:14 57° WNW 19:22:59 46° N visible
07 Dec 2.4 18:55:44 10° SW 18:59:31 59° WNW 19:01:53 21° NNE visible
08 Dec 2.4 18:32:59 10° SW 18:36:47 60° NW 18:40:34 10° NNE visible
09 Dec 2.4 18:10:14 10° SW 18:14:02 62° NW 18:17:50 10° NNE visible
